This demonstration page uses our WeatherBlox Daily Observations layout. Learn more.

Left ArrowRight Arrow

Hourly Observations for November 12, 2016

Temp ( °F °C ) Dew Point ( °F °C ) Humidity (%) Winds ( mph kmh ) Pressure ( in mb ) Visibility ( mi km ) Precip ( " mm )
12:15 am 00:15 Clear 31 -0.6 26 -3.4 82 82 N N/A 30.53 1034 10 16 N/A
12:35 am 00:35 Clear 31 -0.5 27 -2.8 85 85 S 3 6 30.53 1034 10 16 N/A
12:55 am 00:55 Clear 31 -0.3 26 -3.2 81 81 S 3 6 30.53 1034 10 16 N/A
1:15 am 01:15 Clear 31 -0.4 26 -3.1 82 82 S 5 7 30.56 1035 10 16 N/A
1:35 am 01:35 Clear 32 undefined 27 -2.6 83 83 S 6 9 30.53 1034 10 16 N/A
1:55 am 01:55 Clear 31 -0.5 26 -3.1 83 83 SSW 5 7 30.53 1034 10 16 N/A
2:15 am 02:15 Clear 31 -0.3 27 -2.9 83 83 SSW 5 7 30.53 1034 10 16 N/A
2:35 am 02:35 Clear 31 -0.4 27 -2.9 83 83 SSW 5 7 30.53 1034 10 16 N/A
2:55 am 02:55 Clear 31 -0.5 27 -3 83 83 SW 6 9 30.53 1034 10 16 N/A
3:15 am 03:15 Clear 31 -0.6 27 -2.9 85 85 SW 5 7 30.53 1034 10 16 N/A
3:35 am 03:35 Clear 31 -0.5 28 -2.5 87 87 SW 5 7 30.53 1034 10 16 N/A
3:55 am 03:55 Clear 31 -0.5 27 -2.6 86 86 SW 5 7 30.53 1034 10 16 N/A
4:15 am 04:15 Clear 31 -0.5 27 -2.7 85 85 SW 3 6 30.53 1034 10 16 N/A
4:35 am 04:35 Clear 30 -1 27 -3 86 86 SW 5 7 30.50 1033 10 16 N/A
4:55 am 04:55 Clear 28 -2.4 24 -4.2 88 88 SSW 3 6 30.53 1034 10 16 N/A
5:15 am 05:15 Clear 27 -2.6 24 -4.2 89 89 SSW 3 6 30.53 1034 10 16 N/A
5:35 am 05:35 Clear 29 -1.9 26 -3.3 90 90 SSW 5 7 30.50 1033 10 16 N/A
5:55 am 05:55 Clear 29 -1.5 27 -3 90 90 SSW 3 6 30.53 1034 10 16 N/A
6:15 am 06:15 Clear 29 -1.7 26 -3.1 90 90 SW 3 6 30.50 1033 10 16 N/A
6:35 am 06:35 Clear 28 -2 26 -3.3 91 91 SW 6 9 30.50 1033 10 16 N/A
6:55 am 06:55 Clear 28 -2.4 26 -3.6 92 92 SW 6 9 30.50 1033 10 16 N/A
7:15 am 07:15 Clear 28 -2.3 26 -3.6 91 91 SW 6 9 30.50 1033 10 16 N/A
7:35 am 07:35 Sunny 29 -1.9 26 -3.2 91 91 SSW 6 9 30.50 1033 10 16 N/A
7:55 am 07:55 Sunny 30 -1.2 27 -2.7 90 90 SW 6 9 30.50 1033 10 16 N/A
8:15 am 08:15 Sunny 32 undefined 29 -1.6 89 89 SSW 9 15 30.48 1032 10 16 N/A
8:35 am 08:35 Sunny 34 1.2 31 -0.7 87 87 SSW 12 19 30.48 1032 10 16 N/A
8:55 am 08:55 Sunny 36 2.2 32 -0.2 84 84 SSW 12 19 30.48 1032 10 16 N/A
9:15 am 09:15 Sunny 38 3.1 32 0.2 81 81 SW 10 17 30.45 1031 10 16 N/A
9:35 am 09:35 Sunny 39 3.7 32 0.1 78 78 SSW 10 17 30.45 1031 10 16 N/A
9:55 am 09:55 Sunny 40 4.5 32 0.1 73 73 SW 14 22 30.45 1031 10 16 N/A
10:15 am 10:15 Sunny 41 5.2 32 0.2 70 70 SW 16 26 30.42 1030 10 16 N/A
10:35 am 10:35 Sunny 43 6.1 32 0.2 66 66 SW 14 22 30.39 1029 10 16 N/A
10:55 am 10:55 Sunny 44 6.7 32 -0.1 62 62 SSW 18 30 30.39 1029 10 16 N/A
11:15 am 11:15 Sunny 46 7.8 32 0.2 59 59 SSW 15 24 30.39 1029 10 16 N/A
11:35 am 11:35 Sunny 47 8.3 32 0.1 57 57 SSW 16 26 30.36 1028 10 16 N/A
11:55 am 11:55 Sunny 49 9.2 32 undefined 53 53 SSW 14 22 30.33 1027 10 16 N/A
12:15 pm 12:15 Sunny 50 10.1 32 0.1 50 50 SSW 13 20 30.30 1026 10 16 N/A
12:35 pm 12:35 Sunny 52 11 32 -0.1 47 47 SW 13 20 30.30 1026 10 16 N/A
12:55 pm 12:55 Sunny 52 11 31 -0.4 46 46 SSW 13 20 30.27 1025 10 16 N/A
1:15 pm 13:15 Sunny 53 11.5 32 -0.2 45 45 SSW 15 24 30.27 1025 10 16 N/A
1:35 pm 13:35 Sunny 54 12.2 31 -0.5 42 42 SSW 15 24 30.21 1023 10 16 N/A
1:55 pm 13:55 Sunny 54 12.4 28 -2.3 36 36 SSW 13 20 30.21 1023 10 16 N/A
2:15 pm 14:15 Sunny 55 13 29 -1.8 36 36 SSW 15 24 30.21 1023 10 16 N/A
2:35 pm 14:35 Sunny 55 12.8 28 -2.1 36 36 S 16 26 30.18 1022 10 16 N/A
2:55 pm 14:55 Sunny 56 13.1 28 -2.4 34 34 SSW 14 22 30.18 1022 10 16 N/A
3:15 pm 15:15 Sunny 56 13.1 27 -2.6 34 34 SSW 15 24 30.18 1022 10 16 N/A
3:35 pm 15:35 Sunny 56 13.3 27 -2.7 33 33 S 12 19 30.18 1022 10 16 N/A
3:55 pm 15:55 Sunny 55 13 27 -2.7 34 34 SSW 15 24 30.18 1022 10 16 N/A
4:15 pm 16:15 Sunny 55 12.7 27 -2.7 34 34 S 12 19 30.15 1021 10 16 N/A
4:35 pm 16:35 Sunny 54 12.2 27 -2.6 36 36 S 9 15 30.15 1021 10 16 N/A
4:55 pm 16:55 Sunny 53 11.6 27 -2.6 37 37 S 10 17 30.15 1021 10 16 N/A
5:15 pm 17:15 Sunny 50 9.9 29 -1.6 45 45 S 8 13 30.18 1022 10 16 N/A
5:35 pm 17:35 Clear 47 8.3 29 -1.4 51 51 S 8 13 30.15 1021 10 16 N/A
5:55 pm 17:55 Clear 45 7.2 30 -1.2 56 56 S 10 17 30.15 1021 10 16 N/A
6:15 pm 18:15 Clear 44 6.6 30 -1 59 59 S 12 19 30.18 1022 10 16 N/A
6:35 pm 18:35 Clear 43 6.3 30 -1 60 60 S 10 17 30.18 1022 10 16 N/A
6:55 pm 18:55 Clear 43 6 30 -1 61 61 S 10 17 30.18 1022 10 16 N/A
7:15 pm 19:15 Clear 43 6.1 31 -0.7 62 62 S 10 17 30.18 1022 10 16 N/A
7:35 pm 19:35 Clear 43 6.3 31 -0.8 61 61 S 14 22 30.18 1022 10 16 N/A
7:55 pm 19:55 Clear 43 6 31 -0.8 62 62 S 12 19 30.18 1022 10 16 N/A
8:15 pm 20:15 Clear 42 5.8 30 -1 62 62 S 14 22 30.18 1022 10 16 N/A
8:35 pm 20:35 Clear 43 5.9 30 -1.2 61 61 S 13 20 30.18 1022 10 16 N/A
8:55 pm 20:55 Clear 42 5.5 30 -1.1 63 63 S 14 22 30.18 1022 10 16 N/A
9:15 pm 21:15 Clear 42 5.5 30 -1 63 63 S 13 20 30.18 1022 10 16 N/A
9:35 pm 21:35 Clear 41 5.2 30 -1 65 65 S 13 20 30.18 1022 10 16 N/A
9:55 pm 21:55 Clear 41 5.1 30 -1 65 65 S 13 20 30.18 1022 10 16 N/A
10:15 pm 22:15 Clear 40 4.6 30 -1 67 67 S 12 19 30.18 1022 10 16 N/A
10:35 pm 22:35 Clear 40 4.5 30 -1.1 67 67 S 14 22 30.18 1022 10 16 N/A
10:55 pm 22:55 Clear 40 4.5 30 -1 68 68 SSW 13 20 30.18 1022 10 16 N/A
11:15 pm 23:15 Clear 39 4 30 -1.1 70 70 SSW 12 19 30.18 1022 10 16 N/A
11:35 pm 23:35 Clear 37 3 29 -1.5 73 73 SSW 10 17 30.21 1023 10 16 N/A
11:55 pm 23:55 Clear 37 2.5 29 -1.6 75 75 SSW 9 15 30.21 1023 10 16 N/A

Powered by AerisWeather